EW3630 Weather Reports


Display with metric or nautical units.
time (UTC)temp
F
wind
direction
speed
MPH
gust
MPH
rain 1hr
in
rain 24hr
in
rain mn
in
humidity
%
barometer
mb
20210926001028 84 119 1.0 4.0 0.00 0.00 0.00 24 1018.1
20210926000557 84 127 2.0 4.0 0.00 0.00 0.00 23 1018.0
20210926000051 84 127 1.0 4.0 0.00 0.00 0.00 24 1018.0
20210925235549 85 127 1.0 4.0 0.00 0.00 0.00 23 1018.1
20210925235043 85 136 2.0 7.0 0.00 0.00 0.00 21 1018.1
20210925234542 86 127 3.0 7.0 0.00 0.00 0.00 21 1018.1
20210925234037 86 89 2.0 6.0 0.00 0.00 0.00 20 1018.1
20210925233535 86 148 2.0 8.0 0.00 0.00 0.00 21 1018.1
20210925233029 86 152 3.0 8.0 0.00 0.00 0.00 21 1018.1
20210925232551 86 136 2.0 7.0 0.00 0.00 0.00 21 1018.1
20210925232045 87 155 3.0 6.0 0.00 0.00 0.00 22 1018.1
20210925231544 87 130 3.0 7.0 0.00 0.00 0.00 21 1018.0
20210925231039 87 127 2.0 7.0 0.00 0.00 0.00 21 1018.0
20210925230537 87 148 2.0 8.0 0.00 0.00 0.00 22 1018.0
20210925230031 87 22 3.0 8.0 0.00 0.00 0.00 21 1018.1
20210925225529 88 142 2.0 9.0 0.00 0.00 0.00 21 1018.1
20210925225051 88 104 5.0 9.0 0.00 0.00 0.00 21 1018.1
20210925224549 88 113 3.0 11.0 0.00 0.00 0.00 21 1018.1
20210925224044 88 119 3.0 11.0 0.00 0.00 0.00 21 1018.1
20210925223540 89 125 3.0 9.0 0.00 0.00 0.00 21 1018.1
20210925223031 89 140 3.0 7.0 0.00 0.00 0.00 21 1018.1
20210925222529 89 134 2.0 9.0 0.00 0.00 0.00 21 1018.1
20210925222053 89 150 3.0 9.0 0.00 0.00 0.00 21 1018.2
20210925221550 90 129 3.0 7.0 0.00 0.00 0.00 19 1018.2
20210925221044 89 111 2.0 6.0 0.00 0.00 0.00 21 1018.2
20210925220542 89 146 2.0 7.0 0.00 0.00 0.00 20 1018.2
20210925220035 90 209 3.0 8.0 0.00 0.00 0.00 20 1018.2
20210925215532 90 188 4.0 10.0 0.00 0.00 0.00 20 1018.2
20210925215028 90 173 4.0 10.0 0.00 0.00 0.00 21 1018.3
20210925214554 90 130 4.0 8.0 0.00 0.00 0.00 20 1018.3
20210925214047 90 132 4.0 8.0 0.00 0.00 0.00 21 1018.3
20210925213541 90 144 3.0 9.0 0.00 0.00 0.00 20 1018.4
20210925213035 90 167 4.0 9.0 0.00 0.00 0.00 20 1018.4
20210925212531 90 155 3.0 9.0 0.00 0.00 0.00 20 1018.4
20210925212054 90 115 3.0 9.0 0.00 0.00 0.00 21 1018.4
20210925211551 91 142 2.0 7.0 0.00 0.00 0.00 20 1018.5
20210925211046 90 133 3.0 5.0 0.00 0.00 0.00 20 1018.6
20210925210542 90 110 2.0 5.0 0.00 0.00 0.00 20 1018.6
20210925210040 90 344 1.0 5.0 0.00 0.00 0.00 19 1018.6
20210925205542 90 121 2.0 9.0 0.00 0.00 0.00 21 1018.7
20210925205042 90 140 3.0 9.0 0.00 0.00 0.00 19 1018.8
20210925204545 90 189 2.0 9.0 0.00 0.00 0.00 19 1018.8
20210925204026 90 89 4.0 10.0 0.00 0.00 0.00 21 1018.9
20210925203530 90 82 4.0 10.0 0.00 0.00 0.00 19 1018.8
20210925203027 90 96 3.0 8.0 0.00 0.00 0.00 22 1018.9
20210925202531 90 117 3.0 8.0 0.00 0.00 0.00 22 1018.9
20210925202033 89 225 2.0 7.0 0.00 0.00 0.00 22 1019.0
20210925201537 89 348 2.0 7.0 0.00 0.00 0.00 22 1019.0
20210925201039 90 132 2.0 7.0 0.00 0.00 0.00 23 1019.1
20210925200544 89 125 1.0 7.0 0.00 0.00 0.00 23 1019.1
20210925200043 89 96 2.0 7.0 0.00 0.00 0.00 23 1019.2
20210925195547 89 134 4.0 8.0 0.00 0.00 0.00 23 1019.3
20210925195048 89 139 2.0 8.0 0.00 0.00 0.00 19 1019.4
20210925194532 89 96 2.0 7.0 0.00 0.00 0.00 21 1019.5
20210925194034 89 144 3.0 5.0 0.00 0.00 0.00 22 1019.5
20210925193538 88 114 4.0 9.0 0.00 0.00 0.00 22 1019.6
20210925193040 88 132 1.0 9.0 0.00 0.00 0.00 23 1019.7
20210925192544 88 150 2.0 7.0 0.00 0.00 0.00 23 1019.7
20210925192024 88 333 2.0 5.0 0.00 0.00 0.00 21 1019.8
20210925191552 88 225 2.0 6.0 0.00 0.00 0.00 23 1019.8
20210925191052 87 103 2.0 6.0 0.00 0.00 0.00 23 1020.1
20210925190536 87 282 4.0 6.0 0.00 0.00 0.00 22 1020.1
20210925190035 87 321 2.0 5.0 0.00 0.00 0.00 23 1020.2
20210925185539 87 119 2.0 7.0 0.00 0.00 0.00 24 1020.4
20210925185038 87 128 3.0 7.0 0.00 0.00 0.00 25 1020.5
20210925184542 87 128 2.0 7.0 0.00 0.00 0.00 23 1020.5
20210925184042 87 129 1.0 7.0 0.00 0.00 0.00 24 1020.6
20210925183544 87 148 4.0 7.0 0.00 0.00 0.00 25 1020.7
20210925183044 86 145 1.0 5.0 0.00 0.00 0.00 24 1020.8
20210925182528 86 219 0.0 5.0 0.00 0.00 0.00 25 1020.8
20210925182026 86 329 3.0 5.0 0.00 0.00 0.00 24 1020.8
20210925181529 86 5 2.0 5.0 0.00 0.00 0.00 24 1020.9
20210925181030 86 176 3.0 6.0 0.00 0.00 0.00 29 1021.0
20210925180529 85 123 3.0 6.0 0.00 0.00 0.00 27 1021.1
20210925180031 85 196 1.0 4.0 0.00 0.00 0.00 27 1021.1
20210925175536 85 320 1.0 4.0 0.00 0.00 0.00 28 1021.2
20210925175035 84 27 1.0 6.0 0.00 0.00 0.00 27 1021.2
20210925174540 84 23 3.0 6.0 0.00 0.00 0.00 28 1021.2
20210925174041 84 336 3.0 8.0 0.00 0.00 0.00 30 1021.3
20210925173526 84 360 3.0 8.0 0.00 0.00 0.00 28 1021.4
20210925173027 83 346 1.0 4.0 0.00 0.00 0.00 29 1021.4
20210925172529 83 201 2.0 4.0 0.00 0.00 0.00 28 1021.5
20210925172029 83 207 1.0 4.0 0.00 0.00 0.00 30 1021.6
20210925171531 82 221 1.0 4.0 0.00 0.00 0.00 30 1021.5
20210925171031 82 242 1.0 5.0 0.00 0.00 0.00 31 1021.7
20210925170534 82 311 3.0 6.0 0.00 0.00 0.00 30 1021.7
20210925170034 81 134 2.0 6.0 0.00 0.00 0.00 32 1021.7
20210925165533 81 315 3.0 5.0 0.00 0.00 0.00 32 1021.7
20210925165031 80 5 2.0 4.0 0.00 0.00 0.00 35 1021.8
20210925164533 80 41 1.0 4.0 0.00 0.00 0.00 36 1021.8
20210925164033 80 31 2.0 4.0 0.00 0.00 0.00 36 1021.8
20210925163536 79 342 1.0 3.0 0.00 0.00 0.00 36 1021.8
20210925163036 79 325 1.0 5.0 0.00 0.00 0.00 37 1021.9
20210925162538 78 222 1.0 5.0 0.00 0.00 0.00 38 1021.9
20210925162039 78 345 2.0 4.0 0.00 0.00 0.00 39 1021.9
20210925161544 77 342 2.0 4.0 0.00 0.00 0.00 39 1022.0
20210925161025 77 331 2.0 4.0 0.00 0.00 0.00 42 1022.0
20210925160537 76 205 1.0 3.0 0.00 0.00 0.00 42 1022.1
20210925160047 76 123 1.0 4.0 0.00 0.00 0.00 43 1022.1
20210925155550 75 138 1.0 5.0 0.00 0.00 0.00 43 1022.1
20210925155051 75 342 2.0 5.0 0.00 0.00 0.00 44 1022.1
20210925154535 74 191 1.0 4.0 0.00 0.00 0.00 48 1022.0
20210925154031 73 126 1.0 4.0 0.00 0.00 0.00 47 1022.0
20210925153544 73 344 1.0 4.0 0.00 0.00 0.00 49 1022.0
20210925153044 72 191 1.0 4.0 0.00 0.00 0.00 51 1022.0
20210925152528 71 191 2.0 4.0 0.00 0.00 0.00 51 1022.0
20210925152029 71 111 2.0 4.0 0.00 0.00 0.00 52 1021.9
20210925151534 70 269 1.0 4.0 0.00 0.00 0.00 52 1021.9
20210925151034 70 125 3.0 4.0 0.00 0.00 0.00 53 1021.9
20210925150536 69 135 1.0 3.0 0.00 0.00 0.00 55 1021.9
20210925150037 69 127 1.0 6.0 0.00 0.00 0.00 56 1021.9
20210925145539 68 151 2.0 6.0 0.00 0.00 0.00 56 1021.9
20210925145038 67 189 0.0 3.0 0.00 0.00 0.00 57 1021.8
20210925144541 67 111 1.0 3.0 0.00 0.00 0.00 57 1021.8
20210925144042 66 132 1.0 3.0 0.00 0.00 0.00 58 1021.8
20210925143542 66 160 1.0 3.0 0.00 0.00 0.00 59 1021.8
20210925143037 65 121 1.0 3.0 0.00 0.00 0.00 60 1021.8
20210925142541 65 121 1.0 2.0 0.00 0.00 0.00 61 1021.7
20210925142040 64 121 0.0 3.0 0.00 0.00 0.00 61 1021.6
20210925141544 64 121 1.0 3.0 0.00 0.00 0.00 62 1021.6
20210925141045 63 121 0.0 0.0 0.00 0.00 0.00 63 1021.5
20210925140548 63 121 0.0 2.0 0.00 0.00 0.00 63 1021.4
20210925140048 63 121 0.0 2.0 0.00 0.00 0.00 64 1021.4
20210925135551 62 121 0.0 2.0 0.00 0.00 0.00 64 1021.4
20210925135051 62 123 0.0 0.0 0.00 0.00 0.00 65 1021.3
20210925134537 62 123 0.0 0.0 0.00 0.00 0.00 66 1021.3
20210925134037 61 123 0.0 0.0 0.00 0.00 0.00 66 1021.3
20210925133549 61 114 0.0 0.0 0.00 0.00 0.00 66 1021.2
20210925133050 61 114 0.0 0.0 0.00 0.00 0.00 67 1021.2
20210925132535 61 114 0.0 0.0 0.00 0.00 0.00 66 1021.2
20210925132037 61 114 0.0 0.0 0.00 0.00 0.00 66 1021.1
20210925131536 61 114 0.0 0.0 0.00 0.00 0.00 66 1021.1
20210925131036 61 114 0.0 0.0 0.00 0.00 0.00 66 1021.1
20210925130537 61 114 0.0 0.0 0.00 0.00 0.00 66 1021.1
20210925130038 60 114 0.0 0.0 0.00 0.00 0.00 66 1021.0
20210925125541 60 114 0.0 0.0 0.00 0.00 0.00 66 1020.9
20210925125040 60 114 0.0 0.0 0.00 0.00 0.00 66 1020.9
20210925124544 60 114 0.0 0.0 0.00 0.00 0.00 66 1020.8
20210925124045 60 114 0.0 0.0 0.00 0.00 0.00 66 1020.7
20210925123528 60 114 0.0 0.0 0.00 0.00 0.00 65 1020.7
20210925123028 60 114 0.0 0.0 0.00 0.00 0.00 65 1020.7
20210925122541 60 114 0.0 0.0 0.00 0.00 0.00 65 1020.7
20210925122041 61 114 0.0 0.0 0.00 0.00 0.00 65 1020.7
20210925121546 61 114 0.0 0.0 0.00 0.00 0.00 65 1020.6
20210925121047 61 114 0.0 0.0 0.00 0.00 0.00 65 1020.6
20210925120532 61 114 0.0 0.0 0.00 0.00 0.00 65 1020.5
20210925120029 61 114 0.0 0.0 0.00 0.00 0.00 64 1020.4
20210925115543 61 114 0.0 0.0 0.00 0.00 0.00 65 1020.3
20210925115044 61 114 0.0 0.0 0.00 0.00 0.00 65 1020.3
20210925114544 61 114 0.0 0.0 0.00 0.00 0.00 64 1020.4
20210925114026 61 114 0.0 0.0 0.00 0.00 0.00 64 1020.2
20210925113539 61 114 0.0 0.0 0.00 0.00 0.00 63 1020.2
20210925113040 61 114 0.0 0.0 0.00 0.00 0.00 63 1020.2
20210925112544 61 114 0.0 0.0 0.00 0.00 0.00 62 1020.1
20210925112025 61 114 0.0 0.0 0.00 0.00 0.00 62 1020.1
20210925111539 61 114 0.0 0.0 0.00 0.00 0.00 63 1020.0
20210925111041 61 114 0.0 0.0 0.00 0.00 0.00 62 1020.0
20210925110526 62 114 0.0 0.0 0.00 0.00 0.00 62 1019.8
20210925110027 62 114 0.0 0.0 0.00 0.00 0.00 62 1019.7
20210925105532 62 114 0.0 0.0 0.00 0.00 0.00 62 1019.7
20210925105032 62 114 0.0 0.0 0.00 0.00 0.00 62 1019.7
20210925104536 62 114 0.0 0.0 0.00 0.00 0.00 61 1019.7
20210925104034 62 114 0.0 0.0 0.00 0.00 0.00 61 1019.6
20210925103537 62 114 0.0 0.0 0.00 0.00 0.00 61 1019.6
20210925103038 62 114 0.0 0.0 0.00 0.00 0.00 61 1019.6
20210925102550 62 114 0.0 0.0 0.00 0.00 0.00 61 1019.6
20210925102051 62 114 0.0 0.0 0.00 0.00 0.00 61 1019.5
20210925101534 62 114 0.0 0.0 0.00 0.00 0.00 61 1019.5
20210925101034 62 114 0.0 0.0 0.00 0.00 0.00 61 1019.4
20210925100537 62 114 0.0 0.0 0.00 0.00 0.00 61 1019.3
20210925100039 62 114 0.0 0.0 0.00 0.00 0.00 61 1019.3
20210925095541 62 114 0.0 0.0 0.00 0.00 0.00 61 1019.2
20210925095041 63 114 0.0 0.0 0.00 0.00 0.00 61 1019.2
20210925094544 63 114 0.0 0.0 0.00 0.00 0.00 60 1019.2
20210925094025 63 114 0.0 0.0 0.00 0.00 0.00 60 1019.2
20210925093530 63 114 0.0 0.0 0.00 0.00 0.00 60 1019.2
20210925093029 63 114 0.0 0.0 0.00 0.00 0.00 60 1019.2
20210925092529 63 114 0.0 0.0 0.00 0.00 0.00 60 1019.1
20210925092029 63 114 0.0 0.0 0.00 0.00 0.00 59 1019.0
20210925091543 63 114 0.0 0.0 0.00 0.00 0.00 59 1019.0
20210925091025 63 114 0.0 0.0 0.00 0.00 0.00 59 1019.0
20210925090529 63 114 0.0 0.0 0.00 0.00 0.00 59 1019.0
20210925090040 63 114 0.0 0.0 0.00 0.00 0.00 59 1019.0
20210925085542 63 114 0.0 0.0 0.00 0.00 0.00 59 1019.0
20210925085025 63 114 0.0 0.0 0.00 0.00 0.00 59 1018.9
20210925084529 63 114 0.0 0.0 0.00 0.00 0.00 59 1018.9
20210925084032 63 114 0.0 0.0 0.00 0.00 0.00 59 1018.9
20210925083535 63 114 0.0 0.0 0.00 0.00 0.00 59 1019.0
20210925083038 63 114 0.0 0.0 0.00 0.00 0.00 59 1019.0
20210925082543 63 114 0.0 0.0 0.00 0.00 0.00 60 1019.1
20210925082044 63 114 0.0 0.0 0.00 0.00 0.00 60 1019.1
20210925081528 63 114 0.0 0.0 0.00 0.00 0.00 60 1019.1
20210925081028 63 114 0.0 0.0 0.00 0.00 0.00 60 1019.0
20210925080527 63 114 0.0 0.0 0.00 0.00 0.00 61 1019.0
20210925080029 63 114 0.0 0.0 0.00 0.00 0.00 60 1019.0
20210925075533 63 114 0.0 0.0 0.00 0.00 0.00 60 1019.0
20210925075034 63 114 0.0 0.0 0.00 0.00 0.00 61 1019.0
20210925074537 64 114 0.0 0.0 0.00 0.00 0.00 61 1019.1
20210925074036 64 114 0.0 0.0 0.00 0.00 0.00 59 1019.0
20210925073539 64 114 0.0 0.0 0.00 0.00 0.00 60 1018.9
20210925073040 64 114 0.0 0.0 0.00 0.00 0.00 58 1018.9
20210925072542 64 114 0.0 0.0 0.00 0.00 0.00 59 1018.9
20210925072044 65 114 0.0 0.0 0.00 0.00 0.00 59 1018.9
20210925071547 65 114 0.0 0.0 0.00 0.00 0.00 58 1018.9
20210925071049 65 114 0.0 0.0 0.00 0.00 0.00 58 1018.9
20210925070535 65 114 0.0 0.0 0.00 0.00 0.00 59 1018.9
20210925070037 66 114 0.0 0.0 0.00 0.00 0.00 57 1018.9
20210925065534 66 114 0.0 0.0 0.00 0.00 0.00 58 1018.9
20210925065033 66 114 0.0 0.0 0.00 0.00 0.00 58 1018.9
20210925064537 66 114 0.0 0.0 0.00 0.00 0.00 58 1018.9
20210925064037 67 114 0.0 0.0 0.00 0.00 0.00 54 1018.9
20210925063542 67 114 0.0 0.0 0.00 0.00 0.00 54 1018.9
20210925063042 67 114 0.0 0.0 0.00 0.00 0.00 52 1018.8
20210925062525 68 114 0.0 0.0 0.00 0.00 0.00 51 1018.8
20210925062025 68 114 0.0 0.0 0.00 0.00 0.00 50 1018.8
20210925061528 68 114 0.0 0.0 0.00 0.00 0.00 48 1018.7
20210925061027 69 114 0.0 0.0 0.00 0.00 0.00 49 1018.7
20210925060529 69 114 0.0 0.0 0.00 0.00 0.00 48 1018.7
20210925060027 70 115 0.0 2.0 0.00 0.00 0.00 46 1018.7
20210925055528 70 113 0.0 3.0 0.00 0.00 0.00 45 1018.7
20210925055028 70 134 1.0 5.0 0.00 0.00 0.00 44 1018.7
20210925054529 70 137 2.0 5.0 0.00 0.00 0.00 45 1018.6
20210925054029 70 125 1.0 3.0 0.00 0.00 0.00 45 1018.7
20210925053533 69 114 2.0 3.0 0.00 0.00 0.00 46 1018.7
20210925053033 69 123 1.0 3.0 0.00 0.00 0.00 46 1018.8
20210925052536 69 123 2.0 3.0 0.00 0.00 0.00 48 1018.8
20210925052035 69 133 0.0 2.0 0.00 0.00 0.00 48 1018.9
20210925051540 69 133 0.0 2.0 0.00 0.00 0.00 49 1018.8
20210925051039 69 133 1.0 2.0 0.00 0.00 0.00 48 1018.8
20210925050543 69 133 0.0 1.0 0.00 0.00 0.00 48 1018.8
20210925050024 69 133 0.0 1.0 0.00 0.00 0.00 47 1018.8
20210925045528 69 133 0.0 1.0 0.00 0.00 0.00 46 1018.8
20210925045029 70 133 0.0 1.0 0.00 0.00 0.00 46 1018.7
20210925044533 70 133 0.0 1.0 0.00 0.00 0.00 45 1018.8
20210925044034 71 133 0.0 2.0 0.00 0.00 0.00 44 1018.9
20210925043534 72 136 1.0 3.0 0.00 0.00 0.00 41 1018.8
20210925043036 72 144 1.0 3.0 0.00 0.00 0.00 41 1018.8
20210925042540 72 132 1.0 3.0 0.00 0.00 0.00 41 1018.7
20210925042041 72 138 2.0 4.0 0.00 0.00 0.00 41 1018.8
20210925041526 73 119 1.0 4.0 0.00 0.00 0.00 40 1018.8
20210925041028 73 119 2.0 4.0 0.00 0.00 0.00 40 1018.8
20210925040532 73 134 2.0 6.0 0.00 0.00 0.00 41 1018.7
20210925040034 72 128 1.0 6.0 0.00 0.00 0.00 41 1018.7
20210925035539 72 106 1.0 4.0 0.00 0.00 0.00 43 1018.7
20210925035041 71 121 1.0 2.0 0.00 0.00 0.00 45 1018.8
20210925034545 72 121 0.0 0.0 0.00 0.00 0.00 44 1018.8
20210925034047 72 121 0.0 0.0 0.00 0.00 0.00 43 1018.8
20210925033551 73 121 0.0 1.0 0.00 0.00 0.00 42 1018.7
20210925033051 73 121 0.0 1.0 0.00 0.00 0.00 43 1018.6
20210925032534 73 121 0.0 2.0 0.00 0.00 0.00 41 1018.6
20210925032031 73 121 1.0 2.0 0.00 0.00 0.00 40 1018.6
20210925031533 74 121 0.0 3.0 0.00 0.00 0.00 40 1018.5
20210925031034 74 121 1.0 3.0 0.00 0.00 0.00 40 1018.4
20210925030538 74 121 1.0 3.0 0.00 0.00 0.00 39 1018.4
20210925030038 74 123 0.0 3.0 0.00 0.00 0.00 38 1018.5
20210925025541 75 123 1.0 3.0 0.00 0.00 0.00 37 1018.4
20210925025043 75 148 1.0 3.0 0.00 0.00 0.00 37 1018.4
20210925024525 75 128 1.0 4.0 0.00 0.00 0.00 37 1018.3
20210925024027 76 126 2.0 6.0 0.00 0.00 0.00 36 1018.2
20210925023530 76 132 3.0 6.0 0.00 0.00 0.00 35 1018.2
20210925023030 76 149 2.0 4.0 0.00 0.00 0.00 36 1018.1
20210925022544 76 149 2.0 4.0 0.00 0.00 0.00 35 1018.0
20210925022046 76 123 2.0 6.0 0.00 0.00 0.00 35 1017.9
20210925021530 77 109 2.0 7.0 0.00 0.00 0.00 35 1017.9
20210925021032 77 158 3.0 7.0 0.00 0.00 0.00 35 1017.6
20210925020532 77 152 2.0 5.0 0.00 0.00 0.00 35 1017.5
20210925020032 77 116 1.0 6.0 0.00 0.00 0.00 34 1017.5
20210925015537 77 111 2.0 6.0 0.00 0.00 0.00 33 1017.5
20210925015036 77 128 2.0 3.0 0.00 0.00 0.00 34 1017.6
20210925014541 77 113 1.0 3.0 0.00 0.00 0.00 33 1017.5
20210925014042 77 116 0.0 3.0 0.00 0.00 0.00 33 1017.5
20210925013526 77 116 1.0 3.0 0.00 0.00 0.00 32 1017.5
20210925013029 77 113 0.0 4.0 0.00 0.00 0.00 32 1017.5
20210925012534 77 123 1.0 4.0 0.00 0.00 0.00 31 1017.4
20210925012036 78 107 2.0 5.0 0.00 0.00 0.00 30 1017.3
20210925011540 78 138 2.0 4.0 0.00 0.00 0.00 30 1017.3
20210925011042 78 115 2.0 5.0 0.00 0.00 0.00 30 1017.3
20210925010544 79 123 2.0 5.0 0.00 0.00 0.00 29 1017.2
20210925010025 79 115 2.0 5.0 0.00 0.00 0.00 28 1017.2
20210925005529 79 139 2.0 5.0 0.00 0.00 0.00 27 1017.2
20210925005025 79 131 2.0 4.0 0.00 0.00 0.00 27 1017.2
20210925004529 80 126 2.0 5.0 0.00 0.00 0.00 26 1017.1
20210925004030 80 113 3.0 5.0 0.00 0.00 0.00 26 1017.0
20210925003534 80 132 2.0 7.0 0.00 0.00 0.00 26 1017.0
20210925003033 80 146 3.0 7.0 0.00 0.00 0.00 25 1016.9
20210925002538 81 146 3.0 7.0 0.00 0.00 0.00 25 1017.1
20210925002038 81 109 2.0 7.0 0.00 0.00 0.00 24 1017.2
20210925001543 81 119 2.0 7.0 0.00 0.00 0.00 24 1017.2